SAS264 ENBR-ENGM

Flight info

Callsign SAS264
Flight time N/A
Altitude 29000
Route GOKAB DCT ULVAN DCT ADOPI
Aircraft A321/M-SDE3FGHIRWY/LB1

Departure

Time 2026-05-01 12:39
Airport Bergen Airport, Flesland (ENBR)

Arrival

Time N/A
Airport Oslo-Gardermoen International Airport (ENGM)
Time Latitude Longitude Altitude Speed Heading
2026-05-01 12:11 60.28697 5.22906 174 ft 0 kts 80°
2026-05-01 12:28 60.28692 5.22850 174 ft 2 kts 80°
2026-05-01 12:29 60.28690 5.22828 174 ft 0 kts 81°
2026-05-01 12:33 60.28692 5.22832 174 ft 0 kts 53°
2026-05-01 12:33 60.28699 5.22831 174 ft 1 kts 332°
2026-05-01 12:34 60.28700 5.22780 174 ft 5 kts 246°
2026-05-01 12:34 60.28677 5.22686 174 ft 8 kts 251°
2026-05-01 12:34 60.28663 5.22550 174 ft 10 kts 265°
2026-05-01 12:34 60.28682 5.22415 174 ft 10 kts 284°
2026-05-01 12:35 60.28740 5.22338 174 ft 11 kts 346°
2026-05-01 12:35 60.28828 5.22309 174 ft 14 kts 350°
2026-05-01 12:35 60.28936 5.22272 174 ft 17 kts 350°
2026-05-01 12:35 60.29061 5.22230 174 ft 19 kts 350°
2026-05-01 12:36 60.29198 5.22183 174 ft 20 kts 350°
2026-05-01 12:36 60.29342 5.22134 174 ft 20 kts 350°
2026-05-01 12:36 60.29485 5.22088 174 ft 20 kts 350°
2026-05-01 12:36 60.29627 5.22039 174 ft 20 kts 350°
2026-05-01 12:37 60.29769 5.21992 174 ft 20 kts 350°
2026-05-01 12:37 60.29910 5.21945 174 ft 20 kts 350°
2026-05-01 12:37 60.30006 5.21912 174 ft 10 kts 350°
2026-05-01 12:37 60.30044 5.21811 174 ft 10 kts 271°
2026-05-01 12:38 60.30034 5.21675 174 ft 7 kts 258°
2026-05-01 12:38 60.30014 5.21596 174 ft 6 kts 199°
2026-05-01 12:38 60.29992 5.21596 174 ft 0 kts 171°
2026-05-01 12:38 60.29937 5.21614 174 ft 36 kts 171°
2026-05-01 12:39 60.29427 5.21784 174 ft 112 kts 170°
2026-05-01 12:39 60.28486 5.22109 407 ft 151 kts 170°
2026-05-01 12:39 60.27496 5.22463 1253 ft 147 kts 171°
2026-05-01 12:39 60.26525 5.22804 2146 ft 144 kts 172°
2026-05-01 12:40 60.25512 5.23141 2649 ft 157 kts 173°
2026-05-01 12:40 60.24386 5.23511 3075 ft 173 kts 173°
2026-05-01 12:40 60.23154 5.23914 3480 ft 192 kts 173°
2026-05-01 12:40 60.21759 5.24374 3881 ft 213 kts 173°
2026-05-01 12:41 60.20248 5.24991 4375 ft 234 kts 164°
2026-05-01 12:41 60.18911 5.27073 4917 ft 264 kts 129°
2026-05-01 12:41 60.18378 5.30700 5688 ft 285 kts 94°
2026-05-01 12:41 60.18863 5.34609 6445 ft 299 kts 69°
2026-05-01 12:42 60.19779 5.38373 7153 ft 307 kts 64°
2026-05-01 12:42 60.20765 5.42179 7889 ft 312 kts 64°
2026-05-01 12:42 60.21740 5.46063 8646 ft 316 kts 65°
2026-05-01 12:42 60.22705 5.50081 9374 ft 321 kts 66°
2026-05-01 12:43 60.23645 5.54137 10078 ft 326 kts 66°
2026-05-01 12:43 60.24601 5.58350 10706 ft 335 kts 66°
2026-05-01 12:43 60.25573 5.62681 11096 ft 352 kts 66°
2026-05-01 12:43 60.26601 5.67294 11425 ft 368 kts 67°
2026-05-01 12:44 60.27648 5.72011 11948 ft 376 kts 67°
2026-05-01 12:44 60.28713 5.76822 12626 ft 380 kts 67°
2026-05-01 12:44 60.30873 5.86610 13927 ft 388 kts 67°
2026-05-01 12:45 60.33073 5.96628 15138 ft 395 kts 67°
2026-05-01 12:45 60.34188 6.01729 15785 ft 398 kts 66°
2026-05-01 12:45 60.35302 6.06834 16389 ft 402 kts 66°
2026-05-01 12:46 60.36419 6.11965 16963 ft 406 kts 66°
2026-05-01 12:46 60.37557 6.17204 17549 ft 409 kts 66°
2026-05-01 12:46 60.38699 6.22473 18089 ft 413 kts 66°
2026-05-01 12:46 60.39852 6.27811 18631 ft 417 kts 66°
2026-05-01 12:47 60.41007 6.33174 19177 ft 420 kts 66°
2026-05-01 12:47 60.42169 6.38617 19686 ft 424 kts 68°
2026-05-01 12:47 60.43013 6.44308 20178 ft 426 kts 80°
2026-05-01 12:47 60.43276 6.50228 20705 ft 425 kts 93°
2026-05-01 12:48 60.43151 6.56175 21226 ft 427 kts 96°
2026-05-01 12:48 60.42942 6.62162 21732 ft 429 kts 97°
2026-05-01 12:48 60.42728 6.68216 22246 ft 432 kts 98°
2026-05-01 12:48 60.42528 6.74285 22732 ft 435 kts 97°
2026-05-01 12:49 60.42341 6.80316 23256 ft 436 kts 97°
2026-05-01 12:49 60.42159 6.86416 23921 ft 433 kts 97°
2026-05-01 12:49 60.41981 6.92421 24605 ft 430 kts 97°
2026-05-01 12:49 60.41802 6.98382 25235 ft 428 kts 97°
2026-05-01 12:50 60.41620 7.04383 25866 ft 426 kts 97°
2026-05-01 12:50 60.41437 7.10294 26429 ft 426 kts 97°
2026-05-01 12:50 60.41248 7.16278 27000 ft 425 kts 97°
2026-05-01 12:50 60.41059 7.22213 27570 ft 424 kts 97°
2026-05-01 12:51 60.40870 7.28083 28082 ft 424 kts 97°
2026-05-01 12:51 60.40673 7.34074 28543 ft 425 kts 96°
2026-05-01 12:51 60.40271 7.46011 29165 ft 430 kts 96°
2026-05-01 12:52 60.40069 7.51988 29173 ft 431 kts 96°
2026-05-01 12:52 60.39436 7.70137 29174 ft 430 kts 97°
2026-05-01 12:53 60.38779 7.88140 29174 ft 429 kts 97°
2026-05-01 12:54 60.38329 8.00144 29188 ft 429 kts 97°
2026-05-01 12:54 60.37870 8.12092 28623 ft 427 kts 97°
2026-05-01 12:54 60.37638 8.18056 28144 ft 424 kts 97°
2026-05-01 12:55 60.37170 8.29817 27054 ft 421 kts 97°
2026-05-01 12:55 60.36932 8.35704 26458 ft 421 kts 97°
2026-05-01 12:55 60.36693 8.41546 25848 ft 421 kts 97°
2026-05-01 12:56 60.36449 8.47418 25276 ft 421 kts 97°
2026-05-01 12:56 60.36207 8.53222 24669 ft 421 kts 97°
2026-05-01 12:56 60.35958 8.59121 24065 ft 421 kts 97°
2026-05-01 12:56 60.35705 8.65013 23452 ft 421 kts 98°
2026-05-01 12:57 60.35455 8.70824 22824 ft 422 kts 98°
2026-05-01 12:57 60.34942 8.82554 21783 ft 417 kts 98°
2026-05-01 12:57 60.34686 8.88339 21288 ft 414 kts 98°
2026-05-01 12:58 60.34458 8.94109 20806 ft 412 kts 94°
2026-05-01 12:58 60.34532 8.99874 20269 ft 412 kts 88°
2026-05-01 12:58 60.34740 9.05614 19701 ft 413 kts 87°
2026-05-01 12:59 60.35164 9.17097 18534 ft 414 kts 88°
2026-05-01 12:59 60.35348 9.22894 17941 ft 414 kts 88°
2026-05-01 12:59 60.35671 9.34419 16776 ft 415 kts 88°
2026-05-01 13:00 60.35970 9.46048 15580 ft 416 kts 89°
2026-05-01 13:00 60.36113 9.51867 14969 ft 416 kts 89°
2026-05-01 13:01 60.36390 9.63419 13833 ft 412 kts 89°
2026-05-01 13:01 60.36525 9.69159 13387 ft 406 kts 90°
2026-05-01 13:01 60.36778 9.80354 12474 ft 395 kts 90°
2026-05-01 13:02 60.36899 9.85853 11952 ft 391 kts 90°
2026-05-01 13:07 60.38653 10.82399 5099 ft 280 kts 90°
2026-05-01 13:07 60.38697 10.86231 4974 ft 269 kts 92°
2026-05-01 13:07 60.38591 10.89945 4804 ft 260 kts 97°
2026-05-01 13:08 60.38412 10.93532 4620 ft 253 kts 101°
2026-05-01 13:08 60.38011 10.96892 4451 ft 242 kts 114°
2026-05-01 13:08 60.37309 10.99886 4343 ft 227 kts 126°
2026-05-01 13:08 60.36385 11.02414 4049 ft 228 kts 137°
2026-05-01 13:09 60.35218 11.04603 3624 ft 226 kts 144°
2026-05-01 13:09 60.34050 11.06523 3421 ft 212 kts 145°
2026-05-01 13:09 60.32940 11.08334 3139 ft 201 kts 145°
2026-05-01 13:09 60.31876 11.10081 2798 ft 193 kts 146°
2026-05-01 13:10 60.30811 11.11589 2518 ft 179 kts 156°
2026-05-01 13:10 60.29721 11.12454 2301 ft 162 kts 169°
2026-05-01 13:10 60.28666 11.12764 2062 ft 144 kts 179°
2026-05-01 13:10 60.27716 11.12654 1877 ft 135 kts 195°
2026-05-01 13:11 60.26805 11.12218 1719 ft 134 kts 201°
2026-05-01 13:11 60.25920 11.11671 1579 ft 133 kts 197°
2026-05-01 13:11 60.25025 11.11155 1382 ft 142 kts 202°
2026-05-01 13:11 60.24041 11.10572 2041 ft 147 kts 199°
2026-05-01 13:12 60.23100 11.10054 2830 ft 143 kts 199°
2026-05-01 13:12 60.22131 11.09492 3155 ft 151 kts 200°
2026-05-01 13:12 60.21084 11.08882 3409 ft 164 kts 200°
2026-05-01 13:12 60.19917 11.08200 3647 ft 187 kts 200°
2026-05-01 13:13 60.18621 11.07451 4028 ft 207 kts 200°
2026-05-01 13:13 60.17177 11.06613 4512 ft 220 kts 201°
2026-05-01 13:13 60.15821 11.05296 4871 ft 215 kts 218°
2026-05-01 13:13 60.14754 11.03279 4959 ft 212 kts 234°
2026-05-01 13:14 60.14042 11.00717 4952 ft 211 kts 256°
2026-05-01 13:14 60.14095 10.97782 4960 ft 216 kts 288°
2026-05-01 13:14 60.14991 10.95371 4970 ft 223 kts 317°
2026-05-01 13:14 60.16270 10.93628 4970 ft 225 kts 323°
2026-05-01 13:15 60.17623 10.92024 4967 ft 226 kts 325°
2026-05-01 13:15 60.18985 10.90449 4970 ft 226 kts 325°
2026-05-01 13:15 60.20347 10.88873 4972 ft 226 kts 325°
2026-05-01 13:15 60.21699 10.87318 4972 ft 227 kts 327°
2026-05-01 13:16 60.23154 10.86030 4975 ft 229 kts 334°
2026-05-01 13:16 60.24639 10.84904 4974 ft 229 kts 335°
2026-05-01 13:16 60.26189 10.84035 4975 ft 232 kts 343°
2026-05-01 13:17 60.31059 10.84304 4969 ft 240 kts
2026-05-01 13:17 60.32677 10.84897 4965 ft 240 kts
2026-05-01 13:18 60.35965 10.85930 4968 ft 239 kts
2026-05-01 13:18 60.37582 10.86791 4949 ft 245 kts 27°
2026-05-01 13:18 60.38721 10.89325 4950 ft 251 kts 68°
2026-05-01 13:18 60.38939 10.92719 4830 ft 244 kts 99°
2026-05-01 13:19 60.38541 10.96030 4482 ft 242 kts 115°
2026-05-01 13:19 60.37805 10.99040 4363 ft 238 kts 126°
2026-05-01 13:19 60.35632 11.04076 3702 ft 245 kts 145°
2026-05-01 13:20 60.34339 11.06147 3440 ft 227 kts 146°
2026-05-01 13:20 60.33129 11.08064 3123 ft 217 kts 146°
2026-05-01 13:20 60.32001 11.09892 2857 ft 205 kts 145°
2026-05-01 13:21 60.29707 11.12462 2309 ft 174 kts 170°
2026-05-01 13:21 60.28562 11.12788 2054 ft 159 kts 184°
2026-05-01 13:21 60.27517 11.12581 1849 ft 143 kts 193°
2026-05-01 13:21 60.26552 11.12074 1688 ft 144 kts 201°
2026-05-01 13:22 60.25611 11.11452 1539 ft 143 kts 192°
2026-05-01 13:22 60.24631 11.10936 1372 ft 146 kts 198°
2026-05-01 13:22 60.23677 11.10362 1171 ft 142 kts 193°
2026-05-01 13:22 60.22715 11.09807 969 ft 143 kts 196°
2026-05-01 13:23 60.21750 11.09257 760 ft 149 kts 200°
2026-05-01 13:23 60.20777 11.08692 710 ft 133 kts 196°
2026-05-01 13:23 60.19855 11.08158 1219 ft 145 kts 196°
2026-05-01 13:23 60.18931 11.07626 2162 ft 143 kts 198°
2026-05-01 13:24 60.17992 11.07100 2996 ft 151 kts 199°
2026-05-01 13:24 60.16950 11.06446 3719 ft 166 kts 208°
2026-05-01 13:24 60.16019 11.05106 4366 ft 171 kts 229°
2026-05-01 13:25 60.14511 11.00887 4932 ft 207 kts 231°
2026-05-01 13:25 60.13549 10.98697 4920 ft 211 kts 230°
2026-05-01 13:25 60.12546 10.96486 4955 ft 225 kts 230°
2026-05-01 13:25 60.11421 10.94032 4968 ft 246 kts 228°
2026-05-01 13:26 60.10075 10.91855 5046 ft 259 kts 214°
2026-05-01 13:26 60.08494 10.90107 5801 ft 264 kts 211°
2026-05-01 13:26 60.06889 10.88418 6824 ft 260 kts 212°
2026-05-01 13:26 60.05311 10.86724 7702 ft 261 kts 213°
2026-05-01 13:27 60.03735 10.84996 8557 ft 262 kts 213°
2026-05-01 13:27 60.02153 10.83240 9344 ft 263 kts 214°
2026-05-01 13:27 59.98977 10.79680 10127 ft 264 kts 214°
2026-05-01 13:28 59.95798 10.76098 10131 ft 261 kts 214°
2026-05-01 13:28 59.94233 10.74335 10143 ft 262 kts 214°
2026-05-01 13:29 59.91062 10.70766 10148 ft 262 kts 215°
2026-05-01 13:29 59.87883 10.67188 10162 ft 263 kts 214°
2026-05-01 13:30 59.81528 10.60071 10155 ft 262 kts 214°
2026-05-01 13:31 59.78364 10.56537 10156 ft 263 kts 214°
2026-05-01 13:31 59.73597 10.51229 9847 ft 264 kts 214°
2026-05-01 13:32 59.70427 10.47706 9179 ft 259 kts 214°
2026-05-01 13:33 59.65720 10.42492 8322 ft 258 kts 214°
2026-05-01 13:33 59.62614 10.39060 7582 ft 256 kts 213°
2026-05-01 13:34 59.59536 10.35668 6882 ft 254 kts 213°
2026-05-01 13:34 59.56454 10.32280 6123 ft 253 kts 212°
2026-05-01 13:35 59.53386 10.28913 5403 ft 251 kts 212°
2026-05-01 13:35 59.51875 10.27258 5069 ft 249 kts 212°
2026-05-01 13:35 59.48598 10.25154 4381 ft 254 kts 186°
2026-05-01 13:36 59.46847 10.25141 4051 ft 254 kts 183°
2026-05-01 13:36 59.45079 10.25210 3742 ft 251 kts 182°
2026-05-01 13:36 59.41768 10.25342 3535 ft 228 kts 183°
2026-05-01 13:37 59.40209 10.25390 3407 ft 221 kts 184°
2026-05-01 13:37 59.38676 10.25426 3146 ft 219 kts 184°
2026-05-01 13:37 59.37201 10.25463 3102 ft 206 kts 184°
2026-05-01 13:37 59.35810 10.25496 3034 ft 196 kts 184°
2026-05-01 13:38 59.33384 10.25547 2907 ft 155 kts 185°
2026-05-01 13:38 59.32368 10.25572 2702 ft 140 kts 186°
2026-05-01 13:38 59.31406 10.25589 2506 ft 136 kts 186°
2026-05-01 13:39 59.30470 10.25604 2336 ft 135 kts 186°
2026-05-01 13:39 59.29530 10.25623 2162 ft 135 kts 185°
2026-05-01 13:39 59.28595 10.25644 1992 ft 134 kts 186°
2026-05-01 13:39 59.27675 10.25665 1819 ft 133 kts 185°
2026-05-01 13:40 59.26749 10.25688 1644 ft 132 kts 185°
2026-05-01 13:40 59.25832 10.25708 1471 ft 132 kts 185°
2026-05-01 13:40 59.24909 10.25728 1296 ft 132 kts 184°
2026-05-01 13:40 59.23999 10.25747 1122 ft 131 kts 183°
2026-05-01 13:41 59.23092 10.25768 977 ft 130 kts 181°
2026-05-01 13:41 59.22189 10.25782 825 ft 130 kts 179°
2026-05-01 13:41 59.21277 10.25814 634 ft 129 kts 181°
2026-05-01 13:41 59.20383 10.25829 443 ft 128 kts 180°
2026-05-01 13:42 59.19497 10.25845 297 ft 125 kts 178°
2026-05-01 13:42 59.18829 10.25860 285 ft 56 kts 179°
2026-05-01 13:42 59.18564 10.25864 278 ft 35 kts 179°
2026-05-01 13:42 59.18327 10.25870 273 ft 28 kts 178°
2026-05-01 13:43 59.18231 10.25814 271 ft 14 kts 227°
2026-05-01 13:43 59.18164 10.25670 271 ft 14 kts 227°
2026-05-01 13:43 59.18115 10.25567 272 ft 10 kts 223°
2026-05-01 13:43 59.18068 10.25484 272 ft 8 kts 253°
2026-05-01 13:44 59.18064 10.25376 272 ft 6 kts 257°
2026-05-01 13:44 59.18032 10.25328 273 ft 6 kts 188°
2026-05-01 13:44 59.18012 10.25327 273 ft 1 kts 179°
2026-05-01 13:44 59.18008 10.25328 272 ft 0 kts 179°